Location: Newark
(39.5667°N, 8.9833°E)
Time: 14:01:53
(UTC+00:00)

deb Explorer IX - All Passes

Search period start: 22 October 2019 00:00
Search period end: 01 November 2019 00:00
Orbit: 545 x 1106 km, 38.8° (Epoch: 21 October)

Date Brightness Start Highest point End Pass type
(mag) Time Alt. Az. Time Alt. Az. Time Alt. Az.
22 Oct - 10:41:25 10° SSW 10:45:21 26° SSE 10:49:47 10° E daylight
22 Oct - 12:26:44 10° WSW 12:31:50 68° SSE 12:37:51 10° E daylight
22 Oct - 14:13:20 10° W 14:19:00 84° S 14:25:40 10° E daylight
22 Oct - 16:00:12 10° W 16:06:15 55° SSW 16:13:06 10° SE daylight
22 Oct - 17:48:00 10° W 17:53:06 23° SW 17:58:31 10° SSE visible
23 Oct - 10:19:40 10° SSW 10:23:29 26° SSE 10:27:46 10° E daylight
23 Oct - 12:05:01 10° WSW 12:09:56 68° SSE 12:15:48 10° E daylight
23 Oct - 13:51:33 10° W 13:57:04 83° S 14:03:34 10° E daylight
23 Oct - 15:38:23 10° W 15:44:15 54° SSW 15:50:58 10° SE daylight
23 Oct - 17:26:11 10° W 17:31:05 22° SW 17:36:20 10° SSE visible
24 Oct - 09:57:55 10° SSW 10:01:38 25° SSE 10:05:46 10° E daylight
24 Oct - 11:43:16 10° WSW 11:48:03 68° SSE 11:53:44 10° E daylight
24 Oct - 13:29:48 10° W 13:35:09 83° S 13:41:29 10° E daylight
24 Oct - 15:16:35 10° W 15:22:17 53° SSW 15:28:51 10° SE daylight
24 Oct - 17:04:24 10° W 17:09:05 21° SW 17:14:08 10° SSE visible
25 Oct - 09:36:10 10° SSW 09:39:47 25° SSE 09:43:47 10° E daylight
25 Oct - 11:21:33 10° WSW 11:26:12 68° SSE 11:31:42 10° E daylight
25 Oct - 13:08:04 10° W 13:13:14 82° S 13:19:23 10° E daylight
25 Oct - 14:54:49 10° W 15:00:20 51° SSW 15:06:44 10° SE daylight
25 Oct - 16:42:39 10° W 16:47:06 20° SW 16:51:55 10° S daylight
26 Oct - 09:14:25 10° SSW 09:17:56 25° SSE 09:21:49 10° E daylight
26 Oct - 10:59:49 10° WSW 11:04:21 68° SSE 11:09:40 10° E daylight
26 Oct - 12:46:20 10° W 12:51:21 82° S 12:57:19 10° E daylight
26 Oct - 14:33:02 10° W 14:38:23 49° SSW 14:44:36 10° SE daylight
26 Oct - 16:20:55 10° WSW 16:25:08 19° SW 16:29:41 10° S daylight
27 Oct - 08:52:39 10° SSW 08:56:07 25° SSE 08:59:53 10° E daylight
27 Oct - 10:38:06 10° WSW 10:42:31 68° SSE 10:47:39 10° E daylight
27 Oct - 12:24:35 10° W 12:29:28 81° S 12:35:15 10° E daylight
27 Oct - 14:11:18 10° W 14:16:27 48° SSW 14:22:29 10° SE daylight
27 Oct - 15:59:13 10° WSW 16:03:10 18° SW 16:07:26 10° S daylight
28 Oct - 08:30:53 10° SSW 08:34:18 25° SSE 08:37:58 10° E daylight
28 Oct - 10:16:22 10° WSW 10:20:42 68° SSE 10:25:40 10° E daylight
28 Oct - 12:02:52 10° W 12:07:36 80° S 12:13:12 10° E daylight
28 Oct - 13:49:33 10° W 13:54:32 46° SSW 14:00:22 10° SE daylight
28 Oct - 15:37:32 10° WSW 15:41:13 17° SW 15:45:11 10° S daylight
29 Oct - 08:09:06 10° SSW 08:12:29 25° SSE 08:16:05 10° E daylight
29 Oct - 09:54:38 10° WSW 09:58:53 69° SSE 10:03:42 10° E daylight
29 Oct - 11:41:09 10° W 11:45:45 80° S 11:51:10 10° E daylight
29 Oct - 13:27:50 10° W 13:32:38 44° SSW 13:38:16 10° SE daylight
29 Oct - 15:15:55 10° WSW 15:19:16 16° SW 15:22:53 10° S daylight
30 Oct - 07:47:19 10° SSW 07:50:41 25° SSE 07:54:13 10° E daylight
30 Oct - 09:32:54 10° WSW 09:37:04 69° S 09:41:45 10° E daylight
30 Oct - 11:19:26 10° W 11:23:55 79° S 11:29:09 10° E daylight
30 Oct - 13:06:07 10° W 13:10:45 42° SSW 13:16:10 10° SE daylight
30 Oct - 14:54:19 10° WSW 14:57:20 15° SW 15:00:35 10° S daylight
31 Oct - 07:25:29 10° SSW 07:28:52 25° SSE 07:32:22 10° E daylight
31 Oct - 09:11:09 10° WSW 09:15:17 69° SSE 09:19:49 10° E daylight
31 Oct - 10:57:42 10° W 11:02:05 78° S 11:07:09 10° E daylight
31 Oct - 12:44:23 10° W 12:48:53 41° SSW 12:54:04 10° SE daylight
31 Oct - 14:32:46 10° WSW 14:35:25 14° SW 14:38:15 10° S daylight
